Vertical_Velocity
13 1 1 -2 -0 0 -1 -2 -0 -3 -2 1 -2 1 -2 -2 -1 -0 -0 1 -0 -1 -3 1 2 2 -3 2 3 -0 -2 -4 -3 1 19 -1 -1 -2 -2 -1 -1 -3 -0
-1 2 -1 -2 1 -5 -4 -3 -3 -2 -2 -3 -3 -3 -3 2 -1 -0 1 -0 1 1 -0 -1 0 3 2 0 2 1 0 -2 0 1 7 -6 -5 -2 -3 2 1 4 3
-5 -7 -8 -4 2 0 -0 -2 -1 -2 -3 -3 -1 -2 -4 -2 -0 -0 0 0 -1 -1 -2 -0 -3 -1 -0 0 3 2 4 6 -7 0 2 -0 -2 2 7 -3 3 6 1
-5 4 -0 1 -0 2 2 1 0 -1 -1 -3 -2 -3 -2 -4 -3 -3 -1 2 1 1 0 1 1 0 2 -1 2 7 2 3 -4 7 5 -1 11 -15 -3 -9 -3 0 4
10 7 4 0 -1 -1 0 -1 1 0 -1 -1 -2 -2 -0 -1 -2 -1 -2 -1 -1 -2 1 -1 -0 -2 -1 2 4 2 3 1 7 0 29 0 13 17 -1 -4 -6 -4 4
-4 1 3 4 1 2 -1 -1 2 -2 -0 -3 -2 -2 -1 -3 -5 -1 -1 2 -1 0 1 -1 -3 -1 -4 2 2 6 1 2 1 4 0 1 8 16 2 4 -9 -25 9
8 3 0 4 3 1 0 0 0 1 1 -2 -0 2 -3 0 2 2 0 -0 1 2 1 -2 -2 -0 3 1 3 4 1 4 -2 6 0 -1 -2 0 -5 -2 3 -4 7
-1 -0 4 1 -1 1 0 -3 -3 -0 1 3 1 -1 1 0 0 -1 -0 1 1 1 1 -1 -2 -2 -1 1 2 0 2 4 1 -0 -1 4 -1 -1 21 -2 6 3 5
-4 -1 -1 -2 -2 -4 -4 5 4 1 2 0 0 1 1 -1 -1 0 1 1 0 -2 -1 -0 -1 -0 -1 -3 -2 -1 3 2 5 2 1 -0 2 -5 -14 42 33 10 31
1 -1 -3 0 -0 -0 -0 -4 -4 3 4 3 0 0 1 0 -1 -2 -2 -1 -0 0 -1 1 3 2 1 -1 -1 0 3 5 0 -2 -2 -2 -0 2 -3 -2 0 1 -0
-0 -2 1 0 -2 1 2 2 3 2 0 -0 -1 -3 -5 -4 -2 -2 0 -1 2 1 1 0 0 -0 1 2 0 -0 1 3 5 7 7 2 5 -1 -2 -2 -0 -1 5
2 1 1 0 2 -0 -0 0 -1 -1 -1 -0 -1 -2 -2 0 -0 -3 -0 -0 -3 -1 -2 -3 -0 1 2 2 -0 2 1 5 1 4 2 5 4 -3 -0 1 -3 -3 -5
-0 -1 -2 -2 -1 1 0 0 -1 -1 -0 -2 -3 -3 1 1 2 0 -1 -6 -1 -3 2 -2 2 1 1 -1 -5 -2 -0 2 7 11 9 6 0 1 3 6 1 2 4
-1 0 1 -1 -1 -2 -2 -0 1 -0 -1 -1 -2 0 0 1 2 -1 -2 -3 -2 -2 -1 1 1 0 -1 -2 2 -1 -0 -1 6 4 2 1 -1 -0 2 -1 0 2 -2
2 -0 -2 -0 -1 -2 -1 -2 -0 -1 0 0 -1 -1 -2 -2 -2 -3 -1 -2 -3 -3 -3 0 -2 3 -1 8 -2 -2 -0 1 -2 2 6 -2 3 2 1 -3 -1 1 -1
-0 1 -2 -1 1 -2 -0 0 0 -1 -2 2 2 0 -1 -3 -3 -2 -2 -1 -0 -2 -1 -1 -7 -3 -1 0 -4 -2 4 9 2 10 -3 4 5 1 4 3 -0 -0 3
0 -2 -2 2 0 2 -2 -2 0 -0 0 -1 1 1 -1 -4 -3 -2 -3 -1 0 -2 -2 -3 0 2 -3 -2 1 1 -3 1 2 1 3 3 2 0 1 2 0 -3 2
2 1 0 -1 1 -1 1 1 -2 1 -2 -1 -2 -2 1 1 -3 -2 -1 -1 -1 -2 -1 -0 -2 -1 2 -4 0 0 3 3 1 2 -1 2 0 5 -1 7 6 -9 40
-3 -5 -1 -3 -4 1 -5 -0 3 0 1 -2 -1 -1 0 -2 1 -2 -2 -2 -2 -2 -1 0 1 -1 -3 -0 3 4 0 -2 3 2 -4 1 14 -6 22 46 -17 -16 -6
7 5 -4 -4 -0 1 -4 -3 1 2 5 -2 -0 -1 -1 2 -1 2 1 -1 -2 -2 -3 -3 -1 0 -1 -2 -1 4 5 7 9 1 7 13 2 6 17 32 36 45 16
0 -8 4 3 0 -8 -8 -5 -3 2 4 0 1 0 -2 -1 2 -1 1 1 -0 -0 -2 -2 -1 -1 -0 -2 -1 -0 2 5 -1 -1 -5 -5 -6 -0 -1 -5 1 -3 -5
-5 2 -2 1 4 2 -3 1 -11 8 -1 -0 3 1 1 -1 -0 1 -1 1 1 -0 -1 -1 -2 -2 -1 0 -1 -1 -1 -0 2 2 3 -1 -1 2 1 3 1 -1 -1
-0 1 -2 1 3 2 5 -3 11 -12 -0 -3 4 2 1 2 -0 1 1 -0 1 1 -1 -1 -1 -1 -1 -1 -0 -1 -1 -0 1 0 -3 -1 1 -1 -1 0 -1 -0 0
-4 2 2 0 -4 3 3 -2 6 -5 -6 -3 1 2 -0 2 1 1 1 1 2 2 1 -1 -0 -0 -1 -1 -0 -0 -0 -1 -2 -3 -2 -1 -1 -1 -1 0 0 0 -2
-3 -1 -1 5 -3 5 2 1 4 6 1 -6 -1 1 2 -1 0 1 0 2 1 0 1 -0 -0 -0 -0 -0 -1 -1 -1 -2 -2 -2 -2 -2 -2 -0 0 -1 -2 -1 -2
2 -2 -1 -2 2 -3 1 5 2 3 6 -0 -0 -0 3 1 2 -1 -0 0 2 2 0 1 0 0 -1 -1 -0 0 0 -0 -2 -1 0 1 1 1 0 0 1 1 1
Height
3058 3061 3064 3067 3070 3071 3073 3073 3074 3074 3073 3072 3072 3073 3073 3074 3075 3076 3077 3079 3080 3081 3082 3084 3086 3089 3092 3094 3098 3101 3103 3107 3111 3114 3115 3118 3119 3120 3123 3126 3128 3130 3132
3051 3056 3059 3062 3064 3067 3068 3068 3068 3067 3066 3065 3064 3064 3063 3065 3065 3066 3068 3068 3069 3070 3071 3072 3074 3077 3080 3082 3085 3088 3092 3095 3099 3103 3106 3105 3110 3109 3115 3118 3120 3123 3124
3046 3051 3055 3058 3058 3060 3061 3062 3061 3061 3059 3057 3057 3055 3054 3054 3055 3055 3055 3057 3058 3059 3060 3062 3063 3065 3068 3069 3073 3076 3079 3082 3086 3092 3095 3094 3095 3102 3105 3108 3113 3116 3116
3044 3048 3050 3052 3054 3054 3056 3056 3056 3055 3054 3052 3050 3049 3047 3045 3045 3045 3044 3045 3046 3047 3048 3050 3051 3053 3055 3058 3061 3064 3067 3071 3074 3078 3082 3085 3087 3089 3093 3099 3103 3108 3109
3040 3045 3048 3049 3049 3051 3052 3052 3051 3050 3049 3048 3045 3043 3040 3037 3034 3033 3032 3033 3034 3034 3035 3036 3037 3039 3040 3044 3047 3050 3053 3057 3061 3065 3070 3073 3076 3080 3082 3084 3089 3095 3100
3041 3044 3045 3045 3046 3047 3048 3047 3046 3045 3044 3043 3040 3036 3032 3030 3026 3023 3022 3022 3022 3023 3023 3024 3025 3026 3027 3030 3033 3036 3039 3043 3047 3052 3055 3060 3063 3067 3068 3075 3081 3086 3090
3042 3043 3043 3043 3043 3043 3042 3042 3041 3041 3040 3038 3035 3031 3026 3021 3018 3016 3015 3015 3015 3015 3016 3014 3013 3013 3013 3014 3017 3021 3024 3029 3033 3038 3042 3048 3051 3057 3062 3066 3068 3074 3075
3042 3041 3041 3041 3041 3040 3040 3039 3038 3037 3036 3033 3030 3026 3021 3016 3014 3012 3010 3008 3007 3007 3007 3005 3003 3002 3002 3002 3003 3006 3009 3014 3019 3025 3029 3035 3040 3044 3047 3052 3054 3058 3059
3041 3041 3040 3039 3038 3038 3037 3037 3036 3034 3031 3029 3026 3022 3018 3014 3011 3008 3005 3003 3001 2999 2998 2996 2993 2992 2992 2992 2992 2994 2997 3002 3006 3011 3016 3021 3026 3031 3038 3037 3042 3045 3046
3039 3037 3037 3036 3035 3035 3034 3033 3031 3029 3027 3025 3021 3019 3016 3013 3008 3003 2999 2996 2993 2990 2987 2985 2983 2982 2982 2982 2982 2983 2986 2990 2996 3000 3004 3010 3014 3018 3022 3028 3032 3034 3037
3035 3033 3031 3029 3028 3028 3027 3027 3026 3025 3022 3020 3018 3016 3013 3008 3003 2999 2995 2990 2985 2981 2977 2974 2975 2975 2974 2974 2973 2974 2977 2980 2985 2990 2995 2999 3004 3008 3012 3017 3021 3024 3026
3030 3029 3027 3025 3023 3022 3021 3020 3020 3019 3017 3015 3013 3011 3008 3003 2999 2995 2990 2985 2980 2976 2971 2970 2969 2968 2967 2966 2966 2967 2969 2971 2975 2980 2984 2989 2995 2999 3004 3006 3009 3013 3016
3028 3025 3022 3020 3017 3015 3013 3012 3012 3011 3010 3009 3008 3006 3003 3000 2996 2991 2986 2981 2976 2970 2966 2965 2963 2961 2961 2960 2960 2960 2962 2964 2967 2971 2975 2981 2986 2990 2993 2996 2999 3003 3007
3026 3023 3019 3016 3013 3010 3008 3006 3004 3003 3003 3002 3001 2999 2997 2994 2991 2988 2983 2977 2971 2965 2961 2958 2957 2956 2954 2954 2954 2954 2955 2957 2960 2962 2964 2972 2977 2980 2983 2985 2989 2992 2995
3023 3019 3016 3013 3009 3006 3003 3000 2998 2996 2995 2995 2995 2993 2991 2989 2986 2983 2980 2975 2970 2963 2958 2954 2951 2949 2947 2947 2948 2948 2950 2950 2952 2955 2957 2963 2968 2971 2973 2975 2978 2981 2983
3018 3015 3012 3008 3006 3002 2998 2995 2992 2989 2987 2987 2987 2986 2985 2983 2980 2978 2975 2972 2968 2963 2956 2951 2948 2945 2942 2941 2942 2942 2944 2944 2947 2950 2953 2957 2961 2962 2963 2966 2969 2973 2975
3013 3009 3006 3003 3000 2996 2993 2990 2987 2985 2982 2980 2979 2978 2978 2976 2974 2972 2970 2967 2964 2960 2955 2950 2946 2943 2940 2937 2938 2937 2939 2941 2943 2945 2948 2951 2952 2953 2953 2958 2960 2965 2968
3006 3002 2998 2995 2993 2990 2987 2984 2982 2979 2977 2975 2973 2972 2971 2969 2967 2966 2964 2962 2960 2957 2953 2949 2944 2941 2938 2934 2932 2932 2934 2936 2938 2939 2941 2942 2943 2943 2946 2948 2950 2956 2959
2998 2995 2991 2987 2985 2982 2978 2977 2976 2973 2970 2969 2966 2964 2964 2962 2961 2960 2958 2957 2955 2953 2950 2947 2944 2940 2937 2935 2931 2929 2928 2930 2932 2934 2934 2935 2934 2936 2937 2939 2939 2946 2951
2991 2986 2984 2981 2978 2975 2971 2968 2968 2966 2964 2961 2960 2959 2956 2956 2955 2954 2953 2952 2951 2949 2947 2945 2942 2939 2937 2934 2933 2931 2928 2927 2928 2931 2931 2931 2931 2933 2934 2938 2941 2943 2948
2984 2981 2976 2970 2969 2965 2961 2961 2958 2959 2957 2954 2953 2953 2952 2949 2949 2948 2947 2947 2946 2945 2944 2943 2941 2939 2937 2935 2933 2932 2931 2930 2930 2931 2933 2933 2933 2934 2936 2938 2940 2942 2943
2971 2969 2963 2961 2958 2957 2951 2952 2950 2950 2948 2946 2946 2945 2945 2944 2942 2941 2941 2940 2940 2940 2940 2939 2939 2938 2936 2934 2933 2932 2931 2930 2930 2931 2930 2931 2932 2932 2934 2936 2937 2938 2941
2957 2954 2950 2946 2947 2946 2943 2941 2944 2937 2937 2938 2938 2938 2936 2937 2937 2935 2934 2934 2934 2934 2934 2934 2934 2934 2933 2933 2931 2930 2930 2929 2929 2929 2930 2931 2932 2933 2933 2935 2936 2937 2939
2943 2941 2937 2934 2932 2934 2930 2929 2930 2929 2927 2928 2930 2929 2930 2929 2929 2929 2928 2927 2928 2928 2928 2927 2928 2928 2928 2928 2928 2928 2928 2927 2927 2927 2928 2929 2929 2930 2930 2931 2932 2934 2935
2931 2928 2924 2920 2918 2919 2916 2916 2916 2915 2915 2916 2918 2919 2919 2921 2920 2921 2921 2921 2920 2921 2921 2921 2922 2923 2923 2923 2923 2923 2923 2923 2923 2923 2923 2924 2925 2925 2927 2928 2929 2929 2930
2917 2913 2910 2905 2904 2903 2902 2903 2902 2901 2899 2900 2905 2908 2909 2910 2912 2912 2913 2913 2914 2914 2914 2915 2916 2916 2917 2917 2917 2918 2918 2918 2919 2919 2920 2921 2922 2922 2922 2923 2923 2924 2925